Other Public Products
Issued by NWS Charleston, SC

Current Version | Previous Version | Graphics & Text | Print | Product List | Glossary On
Versions: 1 2 3 4 5 6 7 8 9 10 11 12 13 14 15 16 17 18 19 20 21 22 23 24 25 26 27 28 29 30 31 32 33 34 35 36 37 38 39 40 41 42 43 44 45 46 47 48 49 50
000 FPUS82 KCHS 171827 OPUCHS TEST...KCHS/KSAV Gateway Observations...TEST National Weather Service Charleston SC 100 PM EST SUN DEC 17 2017 NOTE: "fair" indicates few or no clouds below 12,000 feet with no significant weather and/or obstructions to visibility. SCZ050-WAZ558-NCZ071-TXZ119-213-PAZ071-DCZ001-FLZ074-172-MI076- NYZ176-178-MAZ016-IL014-TNZ027-NJZ106-GAZ044-MD014-171900- ...Gateway Observations for Charleston International... CITY SKY/WX TMP DP RH WIND PRES REMARKS Chas Airport MOSUNNY 61 36 39 S7 30.25F 6HR MIN TEMP: 33; 6HR MAX TEMP: 61; Seattle CLOUDY 46 43 89 S14 30.11R 6HR MIN TEMP: 43; 6HR MAX TEMP: 46; 6HR PCP: 0.01; Charlotte CLOUDY 50 31 48 SW6 30.22F 6HR MIN TEMP: 27; 6HR MAX TEMP: 50; Dallas DFW CLOUDY 50 45 83 SW5 30.05F 6HR MIN TEMP: 45; 6HR MAX TEMP: 50; 6HR PCP: TRACE; Dallas Love CLOUDY 49 45 86 S3 30.08F 6HR MIN TEMP: 44; 6HR MAX TEMP: 50; 6HR PCP: TRACE; Philladelphia CLOUDY 42 28 57 CALM 30.24F 6HR MIN TEMP: 32; 6HR MAX TEMP: 43; Wash National CLOUDY 49 31 49 S7 30.23F 6HR MIN TEMP: 32; 6HR MAX TEMP: 49; Baltimore CLOUDY 48 31 51 E6 30.21F 6HR MIN TEMP: 28; 6HR MAX TEMP: 49; Miami PTSUNNY 82 66 58 E15 30.19F 6HR MIN TEMP: 70; 6HR MAX TEMP: 83; Detroit CLOUDY 34 29 82 E7 30.13F WCI 28 6HR MIN TEMP: 30; 6HR MAX TEMP: 34; Newark CLOUDY 38 24 57 CALM 30.26F 6HR MIN TEMP: 32; 6HR MAX TEMP: 38; Laguardia CLOUDY 36 22 56 CALM 30.26F 6HR MIN TEMP: 33; 6HR MAX TEMP: 36; J F K PTSUNNY 36 24 62 CALM 30.27F 6HR MIN TEMP: 32; 6HR MAX TEMP: 37; Boston Logan MOSUNNY 29 2 31 NW9 30.23F WCI 20 6HR MIN TEMP: 20; 6HR MAX TEMP: 29; Ft. Lauderdale PTSUNNY 79 69 71 SE13 30.19F 6HR MIN TEMP: 74; 6HR MAX TEMP: 80; Chicago O`Hare CLOUDY 39 34 82 N5 30.02F HAZE WCI 36 6HR MIN TEMP: 34; 6HR MAX TEMP: 39; Chicago Midway CLOUDY 38 31 76 SW7 30.03F WCI 33 6HR MIN TEMP: 35; 6HR MAX TEMP: 40; Houston Bush CLOUDY 55 52 89 CALM 30.09F 6HR MIN TEMP: 49; 6HR MAX TEMP: 54; Houston Hobby CLOUDY 60 55 83 E3 30.09F HAZE 6HR MIN TEMP: 49; 6HR MAX TEMP: 60; Nashville CLOUDY 46 39 76 S7 30.14S 6HR MIN TEMP: 40; 6HR MAX TEMP: 46; 6HR PCP: 0.13; Atlanta LGT RAIN 45 38 76 E5 30.22F 6HR MIN TEMP: 36; 6HR MAX TEMP: 49; 6HR PCP: 0.02; $$ GAZ044-118-TXZ119-213-NCZ071-DCZ001-MDZ014-506-PAZ021-071-NJZ106- NYZ176-178-MAZ106-OHZ011-021-055-MIZ076-KYZ091-ILZ014-INZ047- MNZ060-ONZ431-171900- ...Gateway Observations for Savannah International... CITY SKY/WX TMP DP RH WIND PRES REMARKS Savannah Arpt PTSUNNY 65 37 35 S7 30.25F 6HR MIN TEMP: 35; 6HR MAX TEMP: 65; Atlanta LGT RAIN 45 38 76 E5 30.22F 6HR MIN TEMP: 36; 6HR MAX TEMP: 49; 6HR PCP: 0.02; Charlotte CLOUDY 50 31 48 SW6 30.22F 6HR MIN TEMP: 27; 6HR MAX TEMP: 50; Dallas DFW CLOUDY 50 45 83 SW5 30.05F 6HR MIN TEMP: 45; 6HR MAX TEMP: 50; 6HR PCP: TRACE; Houston Bush CLOUDY 55 52 89 CALM 30.09F 6HR MIN TEMP: 49; 6HR MAX TEMP: 54; Wash National CLOUDY 49 31 49 S7 30.23F 6HR MIN TEMP: 32; 6HR MAX TEMP: 49; Wash Dulles CLOUDY 48 30 49 CALM 30.21F 6HR MIN TEMP: 26; 6HR MAX TEMP: 48; Baltimore CLOUDY 48 31 51 E6 30.21F 6HR MIN TEMP: 28; 6HR MAX TEMP: 49; Philadelphia CLOUDY 42 28 57 CALM 30.24F 6HR MIN TEMP: 32; 6HR MAX TEMP: 43; Newark CLOUDY 38 24 57 CALM 30.26F 6HR MIN TEMP: 32; 6HR MAX TEMP: 38; Laguardia CLOUDY 36 22 56 CALM 30.26F 6HR MIN TEMP: 33; 6HR MAX TEMP: 36; J F K PTSUNNY 36 24 62 CALM 30.27F 6HR MIN TEMP: 32; 6HR MAX TEMP: 37; Boston MOSUNNY 29 2 31 NW9 30.23F WCI 20 6HR MIN TEMP: 20; 6HR MAX TEMP: 29; Pittsburg CLOUDY 42 29 59 SW7 30.14F 6HR MIN TEMP: 33; 6HR MAX TEMP: 42; Akron CLOUDY 37 29 72 S5 30.12F WCI 33 6HR MIN TEMP: 28; 6HR MAX TEMP: 38; Cleveland CLOUDY 38 31 76 CALM 30.15F 6HR MIN TEMP: 26; 6HR MAX TEMP: 38; Cincinnati CLOUDY 44 33 65 SW8 30.13R 6HR MIN TEMP: 37; 6HR MAX TEMP: 44; Columbus CLOUDY 40 33 77 S3 30.10F Detroit CLOUDY 34 29 82 E7 30.13F WCI 28 6HR MIN TEMP: 30; 6HR MAX TEMP: 34; Chicago O`Hare CLOUDY 39 34 82 N5 30.02F HAZE WCI 36 6HR MIN TEMP: 34; 6HR MAX TEMP: 39; Minneapolis CLOUDY 27 24 89 CALM 30.05F FOG 6HR MIN TEMP: 21; 6HR MAX TEMP: 27; Indianapolis CLOUDY 42 36 79 SW8 30.10F 6HR MIN TEMP: 37; 6HR MAX TEMP: 43; 6HR PCP: 0.02; Toronto Canada PTSUNNY 16 5 62 NE6 30.24F WCI 7 $$

USA.gov is the U.S. government's official web portal to all federal, state and local government web resources and services.